| time (UTC) | temp F | wind direction | speed knots | gust knots | rain 1hr in | rain 24hr in | rain mn in | humidity % | barometer mb |
| 20260506215904 | 92 | 104 | 2.6 | 5.2 | 0.00 | 0.00 | 0.00 | 47 | 1014.9 |
| 20260506215334 | 92 | 105 | 2.6 | 6.1 | 0.00 | 0.00 | 0.00 | 47 | 1015.0 |
| 20260506214305 | 92 | 90 | 0.9 | 3.5 | 0.00 | 0.00 | 0.00 | 47 | 1015.1 |
| 20260506212734 | 92 | 104 | 2.6 | 5.2 | 0.00 | 0.00 | 0.00 | 50 | 1015.0 |
| 20260506212204 | 92 | 103 | 2.6 | 6.1 | 0.00 | 0.00 | 0.00 | 45 | 1015.0 |
| 20260506211636 | 92 | 97 | 2.6 | 6.1 | 0.00 | 0.00 | 0.00 | 48 | 1015.0 |
| 20260506211134 | 92 | 97 | 3.5 | 7.0 | 0.00 | 0.00 | 0.00 | 46 | 1014.9 |
| 20260506210604 | 92 | 101 | 3.5 | 7.0 | 0.00 | 0.00 | 0.00 | 46 | 1014.9 |
| 20260506210103 | 93 | 99 | 2.6 | 6.1 | 0.00 | 0.00 | 0.00 | 47 | 1015.0 |
| 20260506205534 | 93 | 105 | 3.5 | 7.0 | 0.00 | 0.00 | 0.00 | 44 | 1014.8 |
| 20260506204433 | 94 | 101 | 4.3 | 7.8 | 0.00 | 0.00 | 0.00 | 44 | 1014.8 |
| 20260506203904 | 94 | 102 | 3.5 | 7.8 | 0.00 | 0.00 | 0.00 | 46 | 1015.0 |
| 20260506203404 | 94 | 102 | 2.6 | 6.1 | 0.00 | 0.00 | 0.00 | 46 | 1015.0 |
| 20260506202834 | 95 | 100 | 2.6 | 6.1 | 0.00 | 0.00 | 0.00 | 45 | 1015.1 |
| 20260506201234 | 95 | 117 | 1.7 | 4.3 | 0.00 | 0.00 | 0.00 | 44 | 1015.1 |
| 20260506200204 | 94 | 97 | 3.5 | 6.1 | 0.00 | 0.00 | 0.00 | 45 | 1015.2 |
| 20260506195704 | 95 | 95 | 3.5 | 6.1 | 0.00 | 0.00 | 0.00 | 47 | 1015.1 |
| 20260506195133 | 95 | 92 | 1.7 | 5.2 | 0.00 | 0.00 | 0.00 | 46 | 1015.1 |
| 20260506194634 | 94 | 116 | 1.7 | 7.0 | 0.00 | 0.00 | 0.00 | 45 | 1015.2 |
| 20260506194103 | 94 | 110 | 3.5 | 7.0 | 0.00 | 0.00 | 0.00 | 45 | 1015.3 |
| 20260506193034 | 94 | 98 | 3.5 | 7.8 | 0.00 | 0.00 | 0.00 | 50 | 1015.4 |
| 20260506192534 | 94 | 102 | 2.6 | 7.8 | 0.00 | 0.00 | 0.00 | 48 | 1015.5 |
| 20260506192034 | 94 | 102 | 3.5 | 7.8 | 0.00 | 0.00 | 0.00 | 48 | 1015.6 |
| 20260506191534 | 94 | 102 | 4.3 | 7.8 | 0.00 | 0.00 | 0.00 | 49 | 1015.7 |
| 20260506185934 | 94 | 94 | 4.3 | 7.8 | 0.00 | 0.00 | 0.00 | 47 | 1016.0 |
| 20260506185433 | 94 | 99 | 3.5 | 7.8 | 0.00 | 0.00 | 0.00 | 50 | 1016.2 |
| 20260506184904 | 93 | 99 | 4.3 | 7.0 | 0.00 | 0.00 | 0.00 | 49 | 1016.2 |
| 20260506184404 | 92 | 96 | 4.3 | 7.0 | 0.00 | 0.00 | 0.00 | 50 | 1016.2 |
| 20260506181233 | 92 | 98 | 4.3 | 8.7 | 0.00 | 0.00 | 0.00 | 51 | 1016.6 |
| 20260506180204 | 91 | 101 | 3.5 | 7.8 | 0.00 | 0.00 | 0.00 | 53 | 1016.6 |
| 20260506175704 | 90 | 103 | 4.3 | 7.8 | 0.00 | 0.00 | 0.00 | 52 | 1016.7 |
| 20260506174603 | 91 | 98 | 4.3 | 7.8 | 0.00 | 0.00 | 0.00 | 54 | 1016.9 |
| 20260506174103 | 91 | 99 | 4.3 | 7.0 | 0.00 | 0.00 | 0.00 | 53 | 1017.0 |
| 20260506173533 | 91 | 100 | 4.3 | 7.8 | 0.00 | 0.00 | 0.00 | 55 | 1017.0 |
| 20260506173033 | 91 | 99 | 3.5 | 7.8 | 0.00 | 0.00 | 0.00 | 54 | 1017.0 |
| 20260506172534 | 91 | 101 | 3.5 | 7.0 | 0.00 | 0.00 | 0.00 | 55 | 1017.1 |
| 20260506171434 | 91 | 106 | 3.5 | 7.0 | 0.00 | 0.00 | 0.00 | 53 | 1017.2 |
| 20260506170904 | 91 | 101 | 3.5 | 7.0 | 0.00 | 0.00 | 0.00 | 56 | 1017.2 |
| 20260506170334 | 91 | 100 | 4.3 | 7.0 | 0.00 | 0.00 | 0.00 | 56 | 1017.3 |
| 20260506164734 | 90 | 103 | 4.3 | 7.8 | 0.00 | 0.00 | 0.00 | 57 | 1017.4 |
| 20260506164204 | 90 | 106 | 3.5 | 7.8 | 0.00 | 0.00 | 0.00 | 56 | 1017.4 |
| 20260506163704 | 90 | 110 | 2.6 | 7.8 | 0.00 | 0.00 | 0.00 | 56 | 1017.4 |
| 20260506162703 | 90 | 97 | 4.3 | 7.0 | 0.00 | 0.00 | 0.00 | 56 | 1017.4 |
| 20260506162134 | 90 | 107 | 2.6 | 7.0 | 0.00 | 0.00 | 0.00 | 56 | 1017.4 |
| 20260506161634 | 90 | 120 | 2.6 | 6.1 | 0.00 | 0.00 | 0.00 | 57 | 1017.6 |
| 20260506161104 | 90 | 114 | 3.5 | 8.7 | 0.00 | 0.00 | 0.00 | 56 | 1017.5 |
| 20260506160603 | 89 | 113 | 3.5 | 8.7 | 0.00 | 0.00 | 0.00 | 54 | 1017.4 |
| 20260506160034 | 90 | 106 | 2.6 | 7.0 | 0.00 | 0.00 | 0.00 | 56 | 1017.5 |
| 20260506155534 | 89 | 104 | 2.6 | 7.0 | 0.00 | 0.00 | 0.00 | 57 | 1017.4 |
| 20260506155004 | 89 | 105 | 2.6 | 6.1 | 0.00 | 0.00 | 0.00 | 58 | 1017.4 |
| 20260506153933 | 88 | 112 | 2.6 | 6.1 | 0.00 | 0.00 | 0.00 | 61 | 1017.6 |
| 20260506153549 | 88 | 99 | 2.6 | 8.7 | 0.00 | 0.00 | 0.00 | 63 | 1017.6 |
| 20260506153433 | 88 | 99 | 2.6 | 8.7 | 0.00 | 0.00 | 0.00 | 63 | 1017.6 |
| 20260506152933 | 87 | 104 | 2.6 | 8.7 | 0.00 | 0.00 | 0.00 | 64 | 1017.6 |
| 20260506152403 | 86 | 109 | 2.6 | 7.0 | 0.00 | 0.00 | 0.00 | 65 | 1017.7 |
| 20260506151834 | 85 | 131 | 1.7 | 7.0 | 0.00 | 0.00 | 0.00 | 67 | 1017.7 |
| 20260506150235 | 84 | 139 | 1.7 | 7.0 | 0.00 | 0.00 | 0.00 | 71 | 1017.4 |
| 20260506145734 | 84 | 119 | 1.7 | 6.1 | 0.00 | 0.00 | 0.00 | 73 | 1017.5 |
| 20260506145234 | 84 | 123 | 1.7 | 6.1 | 0.00 | 0.00 | 0.00 | 73 | 1017.5 |
| 20260506144733 | 84 | 135 | 1.7 | 5.2 | 0.00 | 0.00 | 0.00 | 75 | 1017.6 |
| 20260506144447 | 83 | 119 | 2.6 | 5.2 | 0.00 | 0.00 | 0.00 | 75 | 1017.7 |
| 20260506144204 | 83 | 119 | 2.6 | 5.2 | 0.00 | 0.00 | 0.00 | 75 | 1017.7 |
| 20260506143704 | 83 | 110 | 2.6 | 6.1 | 0.00 | 0.00 | 0.00 | 76 | 1017.7 |
| 20260506143204 | 82 | 116 | 1.7 | 6.1 | 0.00 | 0.00 | 0.00 | 77 | 1017.7 |
| 20260506142133 | 81 | 130 | 1.7 | 3.5 | 0.00 | 0.00 | 0.00 | 80 | 1017.7 |
| 20260506141633 | 80 | 134 | 1.7 | 6.1 | 0.00 | 0.00 | 0.00 | 80 | 1017.7 |
| 20260506141210 | 80 | 124 | 1.7 | 6.1 | 0.00 | 0.00 | 0.00 | 81 | 1017.7 |
| 20260506141134 | 80 | 124 | 1.7 | 6.1 | 0.00 | 0.00 | 0.00 | 81 | 1017.7 |
| 20260506140604 | 79 | 136 | 1.7 | 6.1 | 0.00 | 0.00 | 0.00 | 82 | 1017.6 |
| 20260506140033 | 78 | 160 | 1.7 | 7.0 | 0.00 | 0.00 | 0.00 | 83 | 1017.6 |
| 20260506135003 | 77 | 171 | 2.6 | 7.8 | 0.00 | 0.00 | 0.00 | 84 | 1017.6 |
| 20260506134503 | 77 | 169 | 1.7 | 7.8 | 0.00 | 0.00 | 0.00 | 85 | 1017.7 |
| 20260506133933 | 77 | 168 | 2.6 | 6.1 | 0.00 | 0.00 | 0.00 | 86 | 1017.6 |
| 20260506133404 | 77 | 173 | 2.6 | 6.1 | 0.00 | 0.00 | 0.00 | 86 | 1017.7 |
| 20260506132903 | 76 | 176 | 2.6 | 7.0 | 0.00 | 0.00 | 0.00 | 87 | 1017.6 |
| 20260506132334 | 76 | 174 | 1.7 | 7.0 | 0.00 | 0.00 | 0.00 | 87 | 1017.5 |
| 20260506131334 | 76 | 163 | 2.6 | 6.1 | 0.00 | 0.00 | 0.00 | 88 | 1017.2 |
| 20260506130334 | 75 | 147 | 1.7 | 6.1 | 0.00 | 0.00 | 0.00 | 89 | 1017.2 |
| 20260506125333 | 74 | 158 | 1.7 | 5.2 | 0.00 | 0.00 | 0.00 | 90 | 1017.1 |
| 20260506124833 | 74 | 164 | 1.7 | 5.2 | 0.00 | 0.00 | 0.00 | 91 | 1016.9 |
| 20260506123234 | 73 | 123 | 0.9 | 5.2 | 0.00 | 0.00 | 0.00 | 93 | 1016.9 |
| 20260506122734 | 73 | 128 | 0.9 | 5.2 | 0.00 | 0.00 | 0.00 | 93 | 1016.9 |
| 20260506121134 | 72 | 174 | 0.9 | 5.2 | 0.00 | 0.00 | 0.00 | 93 | 1016.9 |
| 20260506120603 | 72 | 129 | 0.9 | 3.5 | 0.00 | 0.00 | 0.00 | 93 | 1016.9 |
| 20260506120103 | 72 | 118 | 1.7 | 3.5 | 0.00 | 0.00 | 0.00 | 94 | 1016.8 |
| 20260506115034 | 71 | 134 | 0.9 | 4.3 | 0.00 | 0.00 | 0.00 | 94 | 1016.7 |
| 20260506114534 | 71 | 115 | 0.9 | 5.2 | 0.00 | 0.00 | 0.00 | 94 | 1016.6 |
| 20260506111933 | 70 | 153 | 0.9 | 2.6 | 0.00 | 0.00 | 0.00 | 95 | 1016.5 |
| 20260506110834 | 70 | 132 | 0.9 | 5.2 | 0.00 | 0.00 | 0.00 | 95 | 1016.4 |
| 20260506105733 | 69 | 148 | 0.9 | 3.5 | 0.00 | 0.00 | 0.00 | 95 | 1016.2 |
| 20260506105203 | 69 | 132 | 0.9 | 3.5 | 0.00 | 0.00 | 0.00 | 95 | 1016.1 |
| 20260506104703 | 69 | 111 | 0.9 | 3.5 | 0.00 | 0.00 | 0.00 | 95 | 1016.0 |
| 20260506104133 | 69 | 107 | 1.7 | 3.5 | 0.00 | 0.00 | 0.00 | 95 | 1016.1 |
| 20260506103633 | 69 | 105 | 1.7 | 3.5 | 0.00 | 0.00 | 0.00 | 94 | 1016.0 |
| 20260506103133 | 69 | 102 | 1.7 | 3.5 | 0.00 | 0.00 | 0.00 | 94 | 1016.0 |
| 20260506102133 | 69 | 106 | 2.6 | 3.5 | 0.00 | 0.00 | 0.00 | 94 | 1016.0 |
| 20260506101603 | 70 | 104 | 1.7 | 5.2 | 0.00 | 0.00 | 0.00 | 94 | 1016.1 |
| 20260506101103 | 70 | 104 | 0.9 | 5.2 | 0.00 | 0.00 | 0.00 | 94 | 1016.0 |
| 20260506100534 | 70 | 135 | 0.0 | 3.5 | 0.00 | 0.00 | 0.00 | 94 | 1016.0 |
| 20260506095503 | 70 | 144 | 0.0 | 0.9 | 0.00 | 0.00 | 0.00 | 93 | 1016.1 |
| 20260506094434 | 70 | 111 | 0.9 | 2.6 | 0.00 | 0.00 | 0.00 | 93 | 1016.0 |
| 20260506093934 | 70 | 113 | 0.9 | 2.6 | 0.00 | 0.00 | 0.00 | 92 | 1015.9 |
| 20260506093433 | 70 | 118 | 0.0 | 2.6 | 0.00 | 0.00 | 0.00 | 92 | 1015.9 |
| 20260506092903 | 70 | 152 | 0.9 | 1.7 | 0.00 | 0.00 | 0.00 | 92 | 1016.0 |
| 20260506092403 | 70 | 154 | 0.9 | 4.3 | 0.00 | 0.00 | 0.00 | 92 | 1015.9 |
| 20260506091903 | 70 | 147 | 0.0 | 4.3 | 0.00 | 0.00 | 0.00 | 92 | 1015.7 |
| 20260506091334 | 70 | 148 | 0.0 | 2.6 | 0.00 | 0.00 | 0.00 | 92 | 1015.7 |
| 20260506090333 | 69 | 168 | 0.9 | 3.5 | 0.00 | 0.00 | 0.00 | 91 | 1015.7 |
| 20260506084803 | 69 | 105 | 0.9 | 1.7 | 0.00 | 0.00 | 0.00 | 90 | 1015.7 |
| 20260506084303 | 70 | 109 | 0.9 | 3.5 | 0.00 | 0.00 | 0.00 | 90 | 1015.8 |
| 20260506083803 | 70 | 109 | 1.7 | 3.5 | 0.00 | 0.00 | 0.00 | 90 | 1015.7 |
| 20260506083304 | 69 | 121 | 1.7 | 3.5 | 0.00 | 0.00 | 0.00 | 90 | 1015.7 |
| 20260506082803 | 69 | 139 | 0.9 | 3.5 | 0.00 | 0.00 | 0.00 | 90 | 1015.6 |
| 20260506082234 | 69 | 145 | 0.0 | 2.6 | 0.00 | 0.00 | 0.00 | 89 | 1015.9 |
| 20260506081233 | 69 | 136 | 0.9 | 1.7 | 0.00 | 0.00 | 0.00 | 89 | 1016.0 |
| 20260506080133 | 69 | 152 | 0.9 | 2.6 | 0.00 | 0.00 | 0.00 | 88 | 1015.9 |
| 20260506073103 | 69 | 151 | 0.9 | 2.6 | 0.00 | 0.00 | 0.00 | 88 | 1016.0 |
| 20260506072533 | 69 | 138 | 0.9 | 3.5 | 0.00 | 0.00 | 0.00 | 88 | 1015.9 |
| 20260506072003 | 69 | 144 | 0.9 | 3.5 | 0.00 | 0.00 | 0.00 | 88 | 1016.1 |
| 20260506071503 | 69 | 155 | 0.9 | 2.6 | 0.00 | 0.00 | 0.00 | 88 | 1016.1 |
| 20260506071003 | 69 | 118 | 0.0 | 2.6 | 0.00 | 0.00 | 0.00 | 88 | 1016.1 |
| 20260506062233 | 69 | 105 | 1.7 | 4.3 | 0.00 | 0.00 | 0.00 | 87 | 1016.3 |
| 20260506061733 | 69 | 102 | 1.7 | 5.2 | 0.00 | 0.00 | 0.00 | 87 | 1016.3 |
| 20260506061207 | 69 | 101 | 1.7 | 5.2 | 0.00 | 0.00 | 0.00 | 87 | 1016.4 |
| 20260506060633 | 69 | 111 | 0.9 | 3.5 | 0.00 | 0.00 | 0.00 | 87 | 1016.4 |
| 20260506060134 | 69 | 123 | 0.0 | 3.5 | 0.00 | 0.00 | 0.00 | 87 | 1016.5 |
| 20260506050933 | 69 | 101 | 2.6 | 5.2 | 0.00 | 0.00 | 0.00 | 85 | 1016.9 |
| 20260506050433 | 69 | 102 | 2.6 | 3.5 | 0.00 | 0.00 | 0.00 | 84 | 1017.0 |
| 20260506042733 | 71 | 105 | 1.7 | 5.2 | 0.00 | 0.00 | 0.00 | 82 | 1017.0 |
| 20260506042233 | 71 | 110 | 1.7 | 3.5 | 0.00 | 0.00 | 0.00 | 81 | 1016.9 |
| 20260506041703 | 71 | 105 | 1.7 | 5.2 | 0.00 | 0.00 | 0.00 | 81 | 1016.9 |
| 20260506041204 | 71 | 109 | 1.7 | 5.2 | 0.00 | 0.00 | 0.00 | 80 | 1016.9 |
| 20260506040703 | 71 | 111 | 1.7 | 5.2 | 0.00 | 0.00 | 0.00 | 80 | 1016.9 |
| 20260506040203 | 71 | 105 | 1.7 | 5.2 | 0.00 | 0.00 | 0.00 | 80 | 1016.9 |
| 20260506035104 | 71 | 123 | 0.9 | 6.1 | 0.00 | 0.00 | 0.00 | 80 | 1016.9 |
| 20260506034534 | 71 | 105 | 2.6 | 6.1 | 0.00 | 0.00 | 0.00 | 79 | 1016.9 |
| 20260506033503 | 72 | 108 | 3.5 | 6.1 | 0.00 | 0.00 | 0.00 | 79 | 1017.0 |
| 20260506032933 | 72 | 108 | 3.5 | 7.0 | 0.00 | 0.00 | 0.00 | 79 | 1017.0 |
| 20260506032433 | 72 | 107 | 3.5 | 6.1 | 0.00 | 0.00 | 0.00 | 78 | 1017.0 |
| 20260506031934 | 72 | 105 | 3.5 | 6.1 | 0.00 | 0.00 | 0.00 | 78 | 1017.0 |
| 20260506031403 | 72 | 106 | 3.5 | 7.0 | 0.00 | 0.00 | 0.00 | 78 | 1017.0 |
| 20260506030833 | 72 | 105 | 3.5 | 7.8 | 0.00 | 0.00 | 0.00 | 77 | 1016.9 |
| 20260506025803 | 72 | 107 | 4.3 | 6.1 | 0.00 | 0.00 | 0.00 | 77 | 1016.9 |
| 20260506025305 | 73 | 104 | 4.3 | 7.0 | 0.00 | 0.00 | 0.00 | 77 | 1016.9 |
| 20260506024733 | 73 | 105 | 3.5 | 7.0 | 0.00 | 0.00 | 0.00 | 76 | 1016.8 |
| 20260506024233 | 73 | 107 | 2.6 | 7.0 | 0.00 | 0.00 | 0.00 | 75 | 1016.7 |
| 20260506023235 | 73 | 105 | 3.5 | 7.8 | 0.00 | 0.00 | 0.00 | 75 | 1016.7 |
| 20260506022704 | 73 | 106 | 4.3 | 7.8 | 0.00 | 0.00 | 0.00 | 75 | 1016.6 |
| 20260506022203 | 74 | 104 | 5.2 | 7.8 | 0.00 | 0.00 | 0.00 | 75 | 1016.6 |
| 20260506021133 | 74 | 103 | 5.2 | 8.7 | 0.00 | 0.00 | 0.00 | 74 | 1016.5 |
| 20260506020603 | 74 | 103 | 6.1 | 8.7 | 0.00 | 0.00 | 0.00 | 74 | 1016.4 |
| 20260506020033 | 74 | 101 | 7.0 | 12.2 | 0.00 | 0.00 | 0.00 | 73 | 1016.3 |
| 20260506015503 | 75 | 102 | 7.8 | 12.2 | 0.00 | 0.00 | 0.00 | 73 | 1016.3 |
| 20260506014934 | 75 | 101 | 7.8 | 12.2 | 0.00 | 0.00 | 0.00 | 74 | 1016.1 |
| 20260506014433 | 75 | 99 | 7.8 | 12.2 | 0.00 | 0.00 | 0.00 | 74 | 1016.0 |
| 20260506013404 | 75 | 102 | 7.8 | 12.2 | 0.00 | 0.00 | 0.00 | 73 | 1016.0 |
| 20260506012834 | 75 | 103 | 7.8 | 13.0 | 0.00 | 0.00 | 0.00 | 72 | 1015.8 |
| 20260506012307 | 76 | 101 | 8.7 | 13.0 | 0.00 | 0.00 | 0.00 | 71 | 1015.7 |
| 20260506011733 | 76 | 101 | 8.7 | 13.9 | 0.00 | 0.00 | 0.00 | 72 | 1015.7 |
| 20260506011233 | 76 | 103 | 8.7 | 13.9 | 0.00 | 0.00 | 0.00 | 71 | 1015.6 |
| 20260506010203 | 76 | 99 | 8.7 | 12.2 | 0.00 | 0.00 | 0.00 | 70 | 1015.5 |
| 20260506005133 | 76 | 103 | 8.7 | 13.0 | 0.00 | 0.00 | 0.00 | 70 | 1015.4 |
| 20260506004133 | 77 | 99 | 9.6 | 14.8 | 0.00 | 0.00 | 0.00 | 70 | 1015.1 |
| 20260506003633 | 77 | 101 | 8.7 | 14.8 | 0.00 | 0.00 | 0.00 | 70 | 1015.1 |
| 20260506003133 | 77 | 102 | 7.8 | 13.0 | 0.00 | 0.00 | 0.00 | 70 | 1015.1 |
| 20260506002103 | 77 | 104 | 7.8 | 13.9 | 0.00 | 0.00 | 0.00 | 69 | 1014.9 |
| 20260506001604 | 78 | 104 | 7.8 | 13.9 | 0.00 | 0.00 | 0.00 | 69 | 1014.9 |
| 20260506001033 | 78 | 102 | 9.6 | 13.9 | 0.00 | 0.00 | 0.00 | 68 | 1015.0 |
| 20260506000533 | 78 | 101 | 9.6 | 15.6 | 0.00 | 0.00 | 0.00 | 66 | 1014.9 |
| 20260506000005 | 78 | 102 | 10.4 | 16.5 | 0.00 | 0.00 | 0.00 | 68 | 1014.9 |
| 20260505235503 | 79 | 104 | 10.4 | 16.5 | 0.00 | 0.00 | 0.00 | 67 | 1014.7 |
| 20260505235004 | 79 | 102 | 12.2 | 17.4 | 0.00 | 0.00 | 0.00 | 68 | 1014.6 |
| 20260505234503 | 79 | 100 | 13.0 | 18.2 | 0.00 | 0.00 | 0.00 | 67 | 1014.6 |
| 20260505234004 | 80 | 101 | 11.3 | 18.2 | 0.00 | 0.00 | 0.00 | 67 | 1014.5 |
| 20260505233503 | 80 | 102 | 10.4 | 14.8 | 0.00 | 0.00 | 0.00 | 66 | 1014.5 |
| 20260505233005 | 80 | 100 | 11.3 | 16.5 | 0.00 | 0.00 | 0.00 | 66 | 1014.4 |
| 20260505232503 | 81 | 100 | 12.2 | 16.5 | 0.00 | 0.00 | 0.00 | 65 | 1014.5 |
| 20260505231503 | 82 | 100 | 9.6 | 15.6 | 0.00 | 0.00 | 0.00 | 65 | 1014.6 |
| 20260505231005 | 82 | 97 | 8.7 | 13.9 | 0.00 | 0.00 | 0.00 | 64 | 1014.5 |
| 20260505230433 | 82 | 99 | 8.7 | 13.0 | 0.00 | 0.00 | 0.00 | 63 | 1014.5 |
| 20260505225905 | 82 | 100 | 9.6 | 13.0 | 0.00 | 0.00 | 0.00 | 62 | 1014.5 |
| 20260505224303 | 84 | 101 | 7.8 | 11.3 | 0.00 | 0.00 | 0.00 | 60 | 1014.5 |
| 20260505223803 | 84 | 101 | 6.1 | 9.6 | 0.00 | 0.00 | 0.00 | 60 | 1014.5 |
| 20260505223303 | 84 | 106 | 5.2 | 9.6 | 0.00 | 0.00 | 0.00 | 57 | 1014.6 |
| 20260505222733 | 84 | 105 | 5.2 | 8.7 | 0.00 | 0.00 | 0.00 | 59 | 1014.4 |
| 20260505222233 | 84 | 100 | 5.2 | 8.7 | 0.00 | 0.00 | 0.00 | 58 | 1014.3 |
| 20260505221703 | 84 | 100 | 7.0 | 9.6 | 0.00 | 0.00 | 0.00 | 59 | 1014.3 |
| 20260505221203 | 84 | 98 | 6.1 | 9.6 | 0.00 | 0.00 | 0.00 | 56 | 1014.4 |
| 20260505220633 | 84 | 96 | 6.1 | 10.4 | 0.00 | 0.00 | 0.00 | 58 | 1014.3 |